Other Public Products
Issued by NWS Grand Forks, ND

Home | Current Version | Previous Version | Graphics & Text | Print | Product List | Glossary On
Versions: 1 2 3 4 5 6 7 8 9 10 11 12 13 14 15 16 17 18 19 20 21 22 23 24 25 26 27 28 29 30 31 32 33 34 35 36 37 38 39 40 41 42 43 44 45 46 47 48 49 50
000
FPUS83 KFGF 050231
OPUFGF
PRAIRIE TO PINES WEATHER ROUNDUP
NATIONAL WEATHER SERVICE EASTERN NORTH DAKOTA/GRAND FORKS ND
900 PM CDT SAT JUL 04 2015

 **SATELLITE DATA USED TO AUGMENT SKY COVER AT AUTOMATED STATIONS**
 *****  WEATHER ACROSS EASTERN NORTH DAKOTA  *****

CITY           SKY/WX    TMP DP  RH WIND       PRES   REMARKS
GRAND FORKS    MOCLDY    79  68  69 S9        29.72R
GRAND FORKS AF MOCLDY    79  69  70 S9        29.73R
GRAND CITY NWS   N/A     77 N/A N/A S7          N/A
BUXTON         NOT AVBL
DEVILS LAKE    CLOUDY    81  66  61 SW10      29.72S
FARGO          PTCLDY    80  66  62 SE12      29.75R
WAHPETON ARPT  CLEAR     73  63  68 S7        29.79R
$$

 *****  WEATHER ACROSS CENTRAL AND WESTERN NORTH DAKOTA  *****

CITY           SKY/WX    TMP DP  RH WIND       PRES   REMARKS
JAMESTOWN      CLOUDY    75  69  81 SE8       29.76R
BISMARCK       CLOUDY    81  71  71 SE5       29.71R
MINOT          CLOUDY    69  65  86 NW6       29.73F
MINOT AFB      HVY RAIN  70  70 100 N13       29.76R
GARRISON         N/A     75  68  78 CALM      29.69F
WILLISTON      CLEAR     78  68  71 NE12      29.76R
DICKINSON      MOCLDY    79  62  56 SW8       29.74R
HETTINGER      MOCLDY    77  70  79 CALM      29.79R
$$

 *****  OTHER OBSERVATIONS NORTHEAST NORTH DAKOTA  *****

CITY           SKY/WX    TMP DP  RH WIND       PRES   REMARKS
WALHALLA       FAIR      72  70  94 MISG      29.72R
LANGDON        FAIR      75  68  78 S8        29.72F
CAVALIER       FAIR      79  68  69 S8        29.70S HAZE
GRAFTON        FAIR      77  70  78 S9        29.74R
CANDO          FAIR      77  70  78 S14       29.71F
FORT TOTTEN      N/A     81  67  63 S7        29.95S
ROLLA          MOCLDY    68  66  94 N7        29.75F THUNDER
RUGBY          NOT AVBL
 ***** THE ABOVE OBSERVATIONS ARE NON NWS ARE NOT QUALITY
        CONTROLLED AND MAY MIS-REPORT RAIN FOR SNOW...
$$

 *****  OTHER OBSERVATIONS SOUTHEAST NORTH DAKOTA *****

CITY           SKY/WX    TMP DP  RH WIND       PRES   REMARKS
COOPERSTOWN    NOT AVBL
VALLEY CITY    FAIR      77  70  78 S8        29.77R
OAKES            N/A     77  72  83 S12       29.78R
GWINNER        FAIR      77  66  69 S8        29.78R
SHEYENNE NWR     N/A     79  68  68 S7        29.95S
BUFFALO        NOT AVBL
WYNDMERE       NOT AVBL
 ***** THE ABOVE OBSERVATIONS ARE NON NWS ARE NOT QUALITY
       CONTROLLED AND MAY MIS-REPORT RAIN FOR SNOW...
$$

  *****  WEATHER ACROSS NORTHERN MINNESOTA  *****

CITY           SKY/WX    TMP DP  RH WIND       PRES   REMARKS
FLAG ISLAND    CLOUDY    73  66  78 S9        29.77R
WARROAD        CLOUDY    75  68  78 S3        29.80R HAZE
ROSEAU         CLOUDY    73  68  83 S3        29.79S HAZE
HALLOCK        CLOUDY    75  70  83 SE7       29.74R
THF RVR FALLS  MOCLDY    73  66  78 SE7       29.78F
HALSTAD        NOT AVBL
FOSSTON        CLEAR     70  64  83 SE6       29.82R
BAUDETTE       MOCLDY    74  63  68 S7        29.80R HAZE
WASKISH        PTCLDY    73  66  78 CALM      29.83R HAZE
CROOKSTON      MOCLDY    79  66  65 S13       29.76S
$$
  *****  WEATHER ACROSS CENTRAL AND WEST MINNESOTA  *****

CITY           SKY/WX    TMP DP  RH WIND       PRES   REMARKS
BEMIDJI        CLEAR     74  65  74 S3        29.85R HAZE
PARK RAPIDS    MOCLDY    76  65  68 S6        29.85R
WADENA         CLEAR     73  64  73 S6        29.84S
DETROIT LAKES  CLEAR     77  63  61 S12       29.84R
MOORHEAD       CLEAR     77  64  65 S13       29.78R
FERGUS FALLS   CLEAR     75  64  69 S10       29.80S
ELBOW LAKE     FAIR      74  66  76 S10       29.82S
MORRIS MN      CLEAR     75  64  69 S8        29.82S HAZE
STAPLES        CLEAR     73  64  73 CALM      29.86R
WHEATON        CLEAR     75  63  64 SE12      29.81S
$$
  *****  WEATHER ELSEWHERE ACROSS MINNESOTA  *****

CITY           SKY/WX    TMP DP  RH WIND       PRES   REMARKS
DULUTH         PTCLDY    63  55  75 E12       29.89F
INTRNTL FALLS  PTCLDY    67  60  78 CALM      29.84R
ELY            CLEAR     66  55  68 SE5       29.91R
CLOQUET        CLEAR     61  55  82 E5        29.91R
BRAINERD       CLOUDY    75  65  70 S5        29.85R HAZE
HIBBING        CLOUDY    71  61  70 SE7       29.87R
ALEXANDRIA     CLEAR     76  65  68 S9        29.87R
SAINT CLOUD    CLEAR     76  65  68 S9        29.86S HAZE
MINNEAPOLIS    CLEAR     79  63  57 S7        29.89S HAZE
$$

  *****  WEATHER ACROSS SOUTH DAKOTA  *****

CITY           SKY/WX    TMP DP  RH WIND       PRES   REMARKS
SIOUX FALLS    PTCLDY    76  64  66 S14       29.87R
BROOKINGS      CLEAR     73  63  68 S13       29.87S
WATERTOWN      PTCLDY    76  65  68 S13       29.82F
HURON          CLEAR     78  67  68 SE13G24   29.77F
SISSETON         N/A     77  65  66 S10       29.77F
ABERDEEN       PTCLDY    78  67  68 S9        29.76R
MITCHELL       CLEAR     78  67  68 S14       29.81S
PIERRE         CLOUDY    82  69  64 SE14      29.70R
MOBRIDGE       CLOUDY    82  73  74 SE8       29.72R
RAPID CITY     CLEAR     83  66  56 W3        29.79S
$$

  *****  SOME WEATHER IN NEARBY STATES *****

CITY           SKY/WX    TMP DP  RH WIND       PRES   REMARKS
GLASGOW MT     CLEAR     81  53  37 NE15      29.78R
GREAT FALLS MT MOSUNNY   85  48  27 NE9       29.77F
CHEYENNE WY    CLOUDY    74  49  41 S10G18    30.03R
SCOTTSBLUFF NE PTCLDY    73  59  61 SE7       29.85R
OMAHA NE       PTCLDY    76  63  64 SE12      29.90S
DES MOINES IA  MOCLDY    76  60  57 SE6       29.94S
DAVENPORT IA   CLEAR     67  63  87 CALM      29.99S
CHICAGO IL     CLEAR     73  56  54 E8        29.99R
EAU CLAIRE WI  PTCLDY    76  64  66 S7        29.91S HAZE
LA CROSSE WI   CLEAR     75  65  70 S6        29.93S
$$

  *****  SOME NATIONAL WEATHER *****

CITY           SKY/WX    TMP DP  RH WIND       PRES   REMARKS
LA GUARDIA NY  MOCLDY    73  55  53 E3        29.99R
RALEIGH NC     MOCLDY    78  68  71 SW7       30.03R
ATLANTA GA     CLOUDY    78  71  79 S9        30.06S
NEW ORLEANS LA CLOUDY    77  70  79 NE6       30.05S
OKLAHOMA CITY  PTCLDY    74  66  76 S3        29.92R
ALBUQUERQUE NM CLOUDY    79  57  46 CALM      30.09R
SALT LAKE CITY CLOUDY    87  52  29 SE9       29.90R
LOS ANGELES CA PTSUNNY   65  59  81 SW12      29.87S
BOISE ID       PTSUNNY   96  39  13 CALM      29.75S HX  91
SEATTLE WA     MOSUNNY   90  37  15 N12       29.79F
$$

*** WEATHER ACROSS MANITOBA...SASKATCHEWAN AND ONTARIO ***
                ***ONTARIO***

CITY           SKY/WX    TMP DP  RH WIND       PRES   REMARKS
GERALDTON      MOCLDY    64  55  72 S8        29.94S
THUNDER BAY    MOCLDY    61  52  72 E3        29.93S
SIOUX LOOKOUT  CLOUDY    70  59  68 S6        29.82R
TORONTO        MOCLDY    73  57  56 NW10      29.98R
BIG TROUT LK   MOCLDY    63  63 100 N5        29.67S
PICKLE LAKE    CLOUDY    72  55  56 S9        29.80R
DRYDEN         CLEAR     72  57  60 S8        29.81S
KENORA         CLOUDY    75  61  60 S13G18    29.77F FOG
$$
                *** MANITOBA***

CITY           SKY/WX    TMP DP  RH WIND       PRES   REMARKS
BRANDON        CLOUDY    70  64  83 N6        29.76R
DAUPHIN        CLOUDY    66  59  77 N3        29.77R HAZE
ISLAND LAKE    LGT RAIN  66  64  94 W8        29.64R
PILOT MOUND      N/A     68  64  88 NE6         N/A
THE PAS        SMOKE     64  50  59 W10       29.72R VSB 1
THOMPSON       TSTM      63  57  82 NW8       29.63R
WINNIPEG       TSTM      64  64 100 SE6       29.74R
LYNN LAKE      CLOUDY    50  48  93 N9        29.73R
CHURCHILL      LGT RAIN  41  41 100 E25G35    29.71F FOG
GILLAM         SMOKE     64  61  88 W5        29.56F VSB 1
$$
                ***SASKATCHEWAN***

CITY           SKY/WX    TMP DP  RH WIND       PRES   REMARKS
ESTEVAN        CLOUDY    72  63  73 N7        29.79R
KINDERSLEY     SMOKE     66  52  59 N12       29.91R VSB 1
LLOYDMINSTER   PTSUNNY   66  43  42 NW9       29.91R SMOKE
PRINCE ALBERT  CLOUDY    63  46  55 N16G22    29.84R SMOKE
REGINA         MOCLDY    70  59  68 N10       29.81R SMOKE



USA.gov is the U.S. government's official web portal to all federal, state and local government web resources and services.